Location: Artiguedieu
(43.5000°N, 0.5454°E)
Time: 10:25:38
(UTC+00:00)

Vanguard 1 Rocket - Pass Details

Date: 29 July 2021
Orbit: 650 x 4226 km, 34.3° (Epoch: 24 September)

Event Time Altitude Azimuth Distance (km) Brightness Sun altitude
Rises 12:51:50 0° 256° (WSW) 6,736 12.1 63.2°
Reaches altitude 10° 12:57:16 10° 252° (WSW) 5,123 11.7 62.7°
Maximum altitude 13:09:21 48° 185° (S) 1,866 10.6 61.6°
Drops below altitude 10° 13:15:51 10° 112° (ESE) 2,810 10.0 60.9°
Sets 13:17:59 0° 106° (ESE) 3,522 10.3 60.7°
